Tracking 25710 objects as of 6-Jul-2022
HD Live streaming from Space Station
objects crossing your sky now

STARLINK-3970

Track STARLINK-3970 now!
10-day predictions
STARLINK-3970 is classified as:


NORAD ID: 52706
Int'l Code: 2022-053BC
Perigee: 355.6 km
Apogee: 358.0 km
Inclination: 53.2 °
Period: 91.5 minutes
Semi major axis: 6727 km
RCS: Unknown
Launch date: May 18, 2022
Source: United States (US)
Launch site: AIR FORCE EASTERN TEST RANGE (AFETR)
aabbcc
Your satellite tracking list
Your tracking list is empty




NASA's NSSDC Master Catalog

Two Line Element Set (TLE):
1 52706U 22053BC  22186.91667824 -.00070449  00000-0 -50107-3 0  9996
2 52706  53.2153  57.8646 0001836  34.1131 238.8294 15.73229383  1301
Source of the keplerian elements: AFSPC